Weather in Onega

Russia / Arkhangel'skaya Oblast'     63°54′52″N   38°05′11″E
temp.,
°C
wind,
m/s
gust,
m/s
humid.,
%
clouds,
%
prec.,
mm/h
press.,
hPa
HPBL,
m
13 august, sat
sat1300:00+14wnw511715 0.0 1018186
03:00+13wnw57785 0.0 1019182
06:00+13w45801 0.0 1020291
09:00+12wnw56785 0.0 1021328
12:00+12wnw467610 0.0 1022329
15:00+13nw34685 0.0 1022277
18:00+14wnw23615 0.0 1022149
21:00+13nne11705 0.0 102220
14 august, sun
sun1400:00+12se447514 0.0 1023102
03:00+11sse457696 0.0 1023137
06:00+12sse4672100 0.0 1023166
09:00+14s356998 0.0 1022148
12:00+16sw346138 0.0 1022224
15:00+18s246012 0.0 1021298
18:00+19sw356238 0.0 1019141
21:00+17ssw5106840 0.0 1019115
15 august, mon
mon1500:00+16sw5107482 0.0 1020147
03:00+14wsw34846 0.0 102153
06:00+14w23878 0.0 102246
09:00+14w228853 0.0 1023136
12:00+14wnw228467 0.0 1023191
15:00+16nne11725 0.0 1023182
18:00+20ene22655 0.0 1022113
21:00+18ese447391 0.0 102320
16 august, tue
tue1600:00+16ese448193 0.0 102343
03:00+15se3486100 0.0 102339
06:00+15se3379100 0.0 102344
09:00+18sse3369100 0.0 102376
12:00+21sse235790 0.0 1022202
15:00+22sw245611 0.0 1021419
18:00+22s3463100 0.1 102077
21:00+19s337574 0.3 102014
17 august, wed
wed1700:00+18sse448046 0.0 102031
03:00+17se4483100 0.0 102037
06:00+17se4485100 0.1 101943
09:00+20s347389 0.1 1019102
12:00+21sw236855 0.0 1019252
15:00+21wsw13677 0.0 1018476
18:00+22sw46635 0.0 1018159
21:00+21s4571100 0.0 101847